WetterOnline ( https://www.wetteronline.de )

Wetter aktuell Kassel

Aktuelles Wetter: Schauenburg-Elgershausen (317m)

6-stündlich | Neueste Meldungen
Ortszeit Temperatur Wetter
Di, 01.12. 19:00 0.6° C bedeckt
Di, 01.12. 13:00 0.4° C Nebel
Di, 01.12. 7:00 -0.8° C bedeckt
Di, 01.12. 1:00 -0.7° C Schneefall
Mo, 30.11. 19:00 -0.4° C bewölkt
Mo, 30.11. 13:00 -0.5° C bedeckt
Mo, 30.11. 7:00 -5.9° C wolkenlos
Mo, 30.11. 1:00 -3.5° C wolkenlos
Ortszeit Temperatur Wetter
Di, 01.12. 22:30 0.5° C Nebel
Di, 01.12. 22:20 0.5° C Nebel
Di, 01.12. 22:10 0.6° C bewölkt
Di, 01.12. 22:00 0.7° C bedeckt
Di, 01.12. 21:50 0.7° C bedeckt
Di, 01.12. 21:40 0.6° C bedeckt
Di, 01.12. 21:30 0.5° C bewölkt
Di, 01.12. 21:00 0.6° C Sprühregen
Di, 01.12. 20:30 0.5° C Sprühregen
Di, 01.12. 20:00 0.6° C bedeckt
Di, 01.12. 19:30 0.6° C bedeckt
Ortszeit Relative Feuchte Sichtweite
Di, 01.12. 19:00 97% 3.1 km
Di, 01.12. 13:00 99% 0.6 km
Di, 01.12. 7:00 95% 4.4 km
Di, 01.12. 1:00 93% 2.1 km
Mo, 30.11. 19:00 81% 20 km
Mo, 30.11. 13:00 79% 25 km
Mo, 30.11. 7:00 91% 12 km
Mo, 30.11. 1:00 89% 23 km
Ortszeit Relative Feuchte Sichtweite
Di, 01.12. 22:30 97% 0.3 km
Di, 01.12. 22:20 97% -
Di, 01.12. 22:10 98% -
Di, 01.12. 22:00 97% 7 km
Di, 01.12. 21:50 97% -
Di, 01.12. 21:40 98% -
Di, 01.12. 21:30 97% 1.7 km
Di, 01.12. 21:00 98% 0.8 km
Di, 01.12. 20:30 96% 1.2 km
Di, 01.12. 20:00 96% 3.4 km
Di, 01.12. 19:30 99% 3.2 km
Ortszeit Niederschlagsmenge Niederschlagsart
Di, 01.12. 19:00 0.1 l/m2 in 12 Std. Sprühregen
Di, 01.12. 13:00 0.0 l/m2 in 6 Std. -
Di, 01.12. 7:00 6 l/m2 in 12 Std. Schnee, Sprühregen
Di, 01.12. 1:00 6 l/m2 in 6 Std. Schnee, Regen
Mo, 30.11. 19:00 0.0 l/m2 in 12 Std. -
Mo, 30.11. 13:00 0.0 l/m2 in 6 Std. -
Mo, 30.11. 7:00 0.0 l/m2 in 12 Std. -
Mo, 30.11. 1:00 0.0 l/m2 in 6 Std. -
Ortszeit Niederschlagsmenge Niederschlagsart
Di, 01.12. 22:30 0.0 l/m2 in 1 Std. -
Di, 01.12. 22:20 keine Meldung -
Di, 01.12. 22:10 keine Meldung -
Di, 01.12. 22:00 0.1 l/m2 in 1 Std. Regen
Di, 01.12. 21:50 keine Meldung -
Di, 01.12. 21:40 keine Meldung -
Di, 01.12. 21:30 0.1 l/m2 in 1 Std. Schnee
Di, 01.12. 21:00 0.1 l/m2 in 1 Std. Regen
Di, 01.12. 20:30 0.1 l/m2 in 1 Std. -
Di, 01.12. 20:00 0.0 l/m2 in 1 Std. -
Di, 01.12. 19:30 0.0 l/m2 in 1 Std. -
Ortszeit Stärke Spitze Richtung
km/h Bft. km/h Grad Sektor
Di, 01.12. 19:00 4 1 11 100° O
Di, 01.12. 13:00 4 1 14 120° SO
Di, 01.12. 7:00 4 1 18 120° SO
Di, 01.12. 1:00 7 2 18 110° O
Mo, 30.11. 19:00 7 2 14 110° O
Mo, 30.11. 13:00 7 2 18 230° SW
Mo, 30.11. 7:00 4 1 11 320° NW
Mo, 30.11. 1:00 4 1 11 350° N
Ortszeit Stärke Spitze Richtung
km/h Bft. km/h Grad Sektor
Di, 01.12. 22:30 4 1 7 160° S
Di, 01.12. 22:20 4 1 - 160° S
Di, 01.12. 22:10 4 1 - 140° SO
Di, 01.12. 22:00 2 1 6 10° N
Di, 01.12. 21:50 2 1 - 10° N
Di, 01.12. 21:40 4 1 - 10° N
Di, 01.12. 21:30 4 1 4 340° N
Di, 01.12. 21:00 0 0 4 - -
Di, 01.12. 20:30 4 1 4 300° NW
Di, 01.12. 20:00 0 0 7 - -
Di, 01.12. 19:30 4 1 7 50° NO
Ortszeit Untergrenze Bedeckung Gattung
total tief tief mittel hoch
Di, 01.12. 19:00 90 m 8/8 8/8 - - -
Di, 01.12. 13:00 30 m 8/8 8/8 - - -
Di, 01.12. 7:00 120 m 8/8 8/8 - - -
Di, 01.12. 1:00 180 m 8/8 8/8 - - -
Mo, 30.11. 19:00 390 m 7/8 7/8 - - -
Mo, 30.11. 13:00 2700 m 8/8 8/8 - - -
Mo, 30.11. 7:00 - 0/8 0/8 - - -
Mo, 30.11. 1:00 - 0/8 0/8 - - -
Ortszeit Bedeckungsgrad in Achtel und Wolkenuntergrenze
Di, 01.12. 22:30 4(<30m) 7(180m) 7(690m)
Di, 01.12. 22:20 4(<30m) 7(180m) 7(690m)
Di, 01.12. 22:10 1(<30m) 7(210m) 7(540m)
Di, 01.12. 22:00 7(210m) 8(540m) 8(690m)
Di, 01.12. 21:50 7(210m) 8(540m)
Di, 01.12. 21:40 8(180m) 8(570m)
Di, 01.12. 21:30 7(120m) 8(240m) 8(570m)
Di, 01.12. 21:00 8(150m)
Di, 01.12. 20:30 8(150m)
Di, 01.12. 20:00 7(90m) 8(240m)
Di, 01.12. 19:30 8(60m) 8(240m)
Ortszeit Luftdruck NN (hPa) Tendenz (hPa in 3 Std.)
Di, 01.12. 19:00 1019 + 1,9
Di, 01.12. 13:00 1016 + 0,8
Di, 01.12. 7:00 1014 - 0,2
Di, 01.12. 1:00 1016 - 2,6
Mo, 30.11. 19:00 1021 - 1,4
Mo, 30.11. 13:00 1026 - 1,7
Mo, 30.11. 7:00 1029 0,0
Mo, 30.11. 1:00 1029 - 0,3
Ortszeit Luftdruck NN (hPa) Tendenz (hPa in 3 Std.)
Di, 01.12. 22:30 1021 + 1,5
Di, 01.12. 22:20 1021 keine Meldung
Di, 01.12. 22:10 1021 keine Meldung
Di, 01.12. 22:00 1021 + 1,4
Di, 01.12. 21:50 1021 keine Meldung
Di, 01.12. 21:40 1021 keine Meldung
Di, 01.12. 21:30 1020 + 1,7
Di, 01.12. 21:00 1020 + 1,7
Di, 01.12. 20:30 1020 + 1,7
Di, 01.12. 20:00 1020 + 1,8
Di, 01.12. 19:30 1019 + 1,8
Ortszeit Schneehöhe (cm)
Di, 01.12. 19:00 0
Di, 01.12. 13:00 2
Di, 01.12. 7:00 2
Di, 01.12. 1:00 2
Mo, 30.11. 19:00 0
Mo, 30.11. 13:00 0
Mo, 30.11. 7:00 0
Mo, 30.11. 1:00 0
Ortszeit Schneehöhe (cm)
Di, 01.12. 22:30 0
Di, 01.12. 22:20 0
Di, 01.12. 22:10 0
Di, 01.12. 22:00 0
Di, 01.12. 21:50 0
Di, 01.12. 21:40 0
Di, 01.12. 21:30 0
Di, 01.12. 21:00 0
Di, 01.12. 20:30 0
Di, 01.12. 20:00 0
Di, 01.12. 19:30 0
Link zu dieser Seite / Seite empfehlen

Das Wetter in ...